Stations météo

réclame
Mon MeteoGroup
Ritsem, Suède (2013): Température de l'air & dewpoint: 15.08.2019 07:00:00 - 21.08.2019 07:00:00 (CEST)Ritsem, Suède (2013): Vitesse du vent & gusts: 15.08.2019 07:00:00 - 21.08.2019 07:00:00 (CEST)Ritsem, Suède (2013): Direction du vent: 15.08.2019 07:00:00 - 21.08.2019 07:00:00 (CEST)Ritsem, Suède (2013): reduced air pressure: 15.08.2019 07:00:00 - 21.08.2019 07:00:00 (CEST)Ritsem, Suède (2013): visibility: 15.08.2019 07:00:00 - 21.08.2019 07:00:00 (CEST)Ritsem, Suède (2013): Quantités de précipitations: 15.08.2019 07:00:00 - 21.08.2019 07:00:00 (CEST)
Date & Time tt [°C] td [°C] ff [km/h] ff [knt] fx [km/h] fx [knt] dd ppp [hPa] vv [km] rr [mm]
21.08.2019 07:00:00 - - - - - - - - - -
21.08.2019 06:00:00 6,8 6,5 0 0 9 5 N 1011,8 50 0,0
21.08.2019 05:00:00 7,9 7,1 4 2 10 5 NNE 1011,2 44 0,0
21.08.2019 04:00:00 8,3 6,8 7 4 12 6 NE 1011,0 50 0,0
21.08.2019 03:00:00 8,3 6,8 8 4 21 11 NNE 1010,8 50 0,0
21.08.2019 02:00:00 8,7 6,3 13 7 18 10 NNE 1010,4 50 0,0
21.08.2019 01:00:00 8,4 6,4 11 6 15 8 N 1010,7 50 0,0
21.08.2019 00:00:00 7,7 5,8 11 6 17 9 NNE 1010,7 50 0,0
20.08.2019 23:00:00 8,6 6,2 13 7 21 12 N 1010,4 50 0,0
20.08.2019 22:00:00 8,4 6,5 11 6 25 14 NNE 1010,7 50 0,0
20.08.2019 21:00:00 8,9 6,9 13 7 34 18 NNE 1010,5 41 2,2
20.08.2019 20:00:00 10,8 8,6 5 3 14 8 WNW 1009,3 31 0,0
20.08.2019 19:00:00 11,3 8,5 10 5 14 7 NNE 1008,6 50 0,2
20.08.2019 18:00:00 10,9 8,8 11 6 16 8 N 1008,4 8 0,6
20.08.2019 17:00:00 11,0 8,2 5 3 22 12 E 1008,0 50 1,9
20.08.2019 16:00:00 14,6 6,4 6 3 14 7 W 1006,2 44 0,0
20.08.2019 15:00:00 15,4 5,3 5 3 18 10 WSW 1005,7 47 0,0
20.08.2019 14:00:00 15,9 6,1 8 5 21 12 WSW 1005,1 35 0,0
20.08.2019 13:00:00 15,2 8,2 7 4 16 9 SSW 1004,8 29 0,0
20.08.2019 12:00:00 13,0 7,9 4 2 11 6 ESE 1005,0 44 0,0
20.08.2019 11:00:00 13,3 7,9 3 2 5 3 ESE 1004,5 39 0,0
20.08.2019 10:00:00 12,7 8,8 4 2 9 5 S 1004,1 42 0,0
20.08.2019 09:00:00 11,5 8,9 4 2 8 4 E 1003,9 50 0,0
20.08.2019 08:00:00 10,9 9,0 4 2 13 7 E 1003,4 34 0,0
20.08.2019 07:00:00 11,0 8,6 6 3 11 6 ESE 1002,9 50 0,0
20.08.2019 06:00:00 9,8 8,2 6 3 10 6 ENE 1002,6 44 0,0
20.08.2019 05:00:00 9,6 7,9 8 4 11 6 NNE 1002,1 50 0,0
20.08.2019 04:00:00 10,0 8,3 8 4 11 6 NE 1001,6 50 0,0
20.08.2019 03:00:00 9,7 8,3 8 4 12 7 NE 1001,2 50 0,0
20.08.2019 02:00:00 9,3 8,2 6 3 13 7 NE 1000,8 40 0,0
20.08.2019 01:00:00 9,3 8,8 6 3 10 5 NE 1000,3 40 0,0
20.08.2019 00:00:00 9,6 8,4 7 4 - - NNE 999,9 47 0,0
19.08.2019 23:00:00 9,7 8,9 5 3 10 6 ENE 999,3 47 0,0
19.08.2019 22:00:00 10,8 9,4 3 2 10 6 W 998,1 50 0,0
19.08.2019 21:00:00 11,0 10,1 2 1 10 6 WSW 997,4 50 0,0
19.08.2019 20:00:00 11,9 10,1 6 3 10 6 NW 996,7 50 0,0
19.08.2019 19:00:00 11,8 10,5 0 0 6 3 N 996,2 50 0,0
19.08.2019 18:00:00 11,5 11,0 3 2 6 3 ESE 996,1 39 0,0
19.08.2019 17:00:00 12,0 11,4 2 1 6 3 S 995,9 33 0,1
19.08.2019 16:00:00 11,7 10,9 2 1 6 4 S 996,0 11 1,0
19.08.2019 15:00:00 11,7 10,4 5 3 10 5 NNE 996,1 7 0,6
19.08.2019 14:00:00 11,7 10,3 6 3 21 12 N 996,3 11 0,2
19.08.2019 13:00:00 11,5 9,7 8 5 22 12 NNE 996,4 16 0,9
19.08.2019 12:00:00 12,0 10,6 3 1 11 6 NNE 996,7 7 1,8
19.08.2019 11:00:00 12,3 10,0 6 3 17 9 NNE 996,9 50 0,1
19.08.2019 10:00:00 11,6 10,2 0 0 8 5 N 998,3 6 0,9
19.08.2019 09:00:00 11,6 9,5 3 1 14 8 NNE 999,0 22 0,1
19.08.2019 08:00:00 11,5 9,2 6 3 21 12 E 999,4 50 0,2
19.08.2019 07:00:00 11,2 9,3 5 3 18 10 ESE 1000,4 16 1,1
19.08.2019 06:00:00 11,4 8,1 4 2 21 11 NNE 1000,6 41 0,0
19.08.2019 05:00:00 11,8 8,5 8 4 19 10 E 1000,7 50 0,0
19.08.2019 04:00:00 11,4 8,3 10 5 21 11 E 1001,3 50 0,0
19.08.2019 03:00:00 11,3 8,0 6 3 14 7 ENE 1001,8 50 0,0
19.08.2019 02:00:00 11,5 8,7 5 3 13 7 ENE 1002,0 50 0,0
19.08.2019 01:00:00 11,7 9,3 7 4 17 9 S 1002,1 50 0,0
19.08.2019 00:00:00 12,0 9,4 6 4 18 10 SSE 1002,0 50 0,0
18.08.2019 23:00:00 12,3 9,3 8 4 - - SE 1001,7 50 0,0
18.08.2019 22:00:00 12,5 10,0 7 4 15 8 SSE 1001,6 50 0,0
18.08.2019 21:00:00 12,2 10,4 4 2 24 13 N 1001,3 50 0,2
18.08.2019 20:00:00 13,0 10,4 14 8 30 16 SSW 1001,2 42 0,0
18.08.2019 19:00:00 14,4 11,2 2 1 25 13 S 1000,6 50 0,1
18.08.2019 18:00:00 13,6 9,8 20 11 46 25 ESE 1000,9 19 0,3
18.08.2019 17:00:00 15,6 10,1 15 8 34 19 ESE 1000,0 39 0,0
18.08.2019 16:00:00 16,0 9,9 12 6 37 20 SE 999,9 50 0,0
18.08.2019 15:00:00 15,4 10,0 20 11 35 19 ESE 999,9 36 0,0
18.08.2019 14:00:00 15,2 10,4 15 8 29 16 ESE 999,9 50 0,1
18.08.2019 13:00:00 14,1 10,3 16 9 36 19 ESE 1000,1 10 0,2
18.08.2019 12:00:00 14,1 10,5 14 7 42 23 SE 999,9 28 0,0
18.08.2019 11:00:00 14,9 9,0 18 10 36 20 SE 999,6 50 0,0
18.08.2019 10:00:00 15,0 8,2 12 7 34 18 SE 999,1 50 0,0
18.08.2019 09:00:00 14,2 8,4 9 5 32 17 SE 999,2 50 0,0
18.08.2019 08:00:00 14,3 8,5 13 7 30 16 SSE 999,1 50 0,0
18.08.2019 07:00:00 12,7 8,4 8 4 24 13 S 999,1 50 0,0
18.08.2019 06:00:00 12,6 8,1 14 7 26 14 S 999,2 42 0,0
18.08.2019 05:00:00 13,0 7,0 11 6 31 17 SE 999,0 26 0,0
18.08.2019 04:00:00 13,5 5,9 17 9 34 19 ESE 999,0 50 0,0
18.08.2019 03:00:00 12,4 7,5 7 4 17 9 SE 999,5 50 0,0
18.08.2019 02:00:00 11,8 8,8 5 3 21 11 NE 1000,2 50 0,0
18.08.2019 01:00:00 13,6 8,2 11 6 30 16 S 999,7 50 0,0
18.08.2019 00:00:00 12,5 10,9 10 6 22 12 W 999,7 50 0,1
17.08.2019 23:00:00 12,5 11,2 6 3 18 10 SSW 999,9 43 0,3
17.08.2019 22:00:00 12,8 11,4 7 4 33 18 SE 1000,4 14 0,7
17.08.2019 21:00:00 14,3 10,5 23 12 42 23 ESE 1000,0 50 0,3
17.08.2019 20:00:00 13,9 10,9 18 10 35 19 ESE 1000,9 20 0,4
17.08.2019 19:00:00 15,0 9,1 19 11 34 18 ESE 1000,8 50 0,0
17.08.2019 18:00:00 15,1 8,8 20 11 39 21 ESE 1000,9 50 0,0
17.08.2019 17:00:00 14,8 9,2 17 9 34 18 SE 1001,6 50 0,0
17.08.2019 16:00:00 14,4 9,0 16 9 35 19 SE 1002,1 50 0,0
17.08.2019 15:00:00 13,9 8,7 18 10 37 20 SE 1002,8 32 0,0
17.08.2019 14:00:00 14,1 7,8 18 10 34 19 SE 1003,0 50 0,0
17.08.2019 13:00:00 14,0 7,7 14 8 35 19 SE 1003,4 47 0,0
17.08.2019 12:00:00 13,7 7,2 16 9 31 17 SE 1003,6 44 0,0
17.08.2019 11:00:00 11,7 6,2 10 5 27 15 SE 1004,5 50 0,0
17.08.2019 10:00:00 10,8 6,5 13 7 31 17 SE 1004,8 50 0,0
17.08.2019 09:00:00 10,8 6,9 10 6 18 10 SE 1004,9 41 0,0
17.08.2019 08:00:00 9,5 6,9 4 2 14 7 WSW 1005,5 34 0,0
17.08.2019 07:00:00 8,4 6,7 8 4 12 7 NNE 1005,9 48 0,0
17.08.2019 06:00:00 7,4 6,8 5 3 9 5 ENE 1006,3 50 0,0
17.08.2019 05:00:00 6,4 6,3 4 2 9 5 NE 1006,6 50 0,0
17.08.2019 04:00:00 7,0 6,6 8 4 17 9 NNE 1006,6 50 0,0
17.08.2019 03:00:00 6,0 5,0 11 6 16 9 NNE 1006,8 50 0,0
17.08.2019 02:00:00 6,8 5,9 10 6 16 8 N 1006,7 50 0,0
17.08.2019 01:00:00 7,6 6,9 12 6 16 8 NNE 1006,3 50 0,0
17.08.2019 00:00:00 8,4 6,7 8 5 24 13 NNE 1006,0 50 0,8
16.08.2019 23:00:00 9,5 9,4 0 0 8 4 N 1005,6 13 0,2
16.08.2019 22:00:00 9,6 9,1 4 2 8 5 NE 1005,4 11 1,0
16.08.2019 21:00:00 10,0 8,8 5 3 13 7 E 1005,0 10 1,4
16.08.2019 20:00:00 11,9 7,0 6 4 25 13 WSW 1004,3 27 0,0
16.08.2019 19:00:00 13,3 5,9 4 2 9 5 NE 1003,5 39 0,0
16.08.2019 18:00:00 13,0 4,9 8 4 35 19 E 1003,8 48 0,0
16.08.2019 17:00:00 13,5 4,4 16 9 38 20 SSW 1003,9 46 0,0
16.08.2019 16:00:00 15,7 3,8 8 4 25 13 SSW 1003,6 45 0,0
16.08.2019 15:00:00 16,0 5,6 11 6 23 13 S 1003,7 47 0,0
16.08.2019 14:00:00 15,9 6,6 12 6 29 15 SSE 1003,7 48 0,0
16.08.2019 13:00:00 14,8 8,5 14 8 27 15 SSE 1003,8 44 0,0
16.08.2019 12:00:00 14,6 8,8 13 7 28 15 SE 1003,9 35 0,0
16.08.2019 11:00:00 12,8 7,9 15 8 35 19 SE 1004,4 50 0,0
16.08.2019 10:00:00 11,1 8,7 7 4 13 7 SW 1005,3 50 0,0
16.08.2019 09:00:00 9,9 8,2 2 1 8 5 NE 1005,8 22 0,0
16.08.2019 08:00:00 9,4 7,3 4 2 7 4 E 1006,4 40 0,0
16.08.2019 07:00:00 8,9 7,2 3 1 4 2 N 1006,7 44 0,0
16.08.2019 06:00:00 8,5 7,4 3 2 6 3 N 1006,8 38 0,0
16.08.2019 05:00:00 8,3 7,5 3 1 9 5 ENE 1007,0 37 0,0
16.08.2019 04:00:00 8,4 7,6 5 3 9 5 ENE 1007,0 31 0,0
16.08.2019 03:00:00 8,1 6,9 3 2 7 4 ENE 1007,3 34 0,0
16.08.2019 02:00:00 8,3 7,4 4 2 6 3 NNE 1007,6 43 0,0
16.08.2019 01:00:00 8,4 7,5 0 0 6 3 N 1007,7 45 0,0
16.08.2019 00:00:00 8,5 7,1 4 2 6 3 NNE 1007,7 49 0,0
15.08.2019 23:00:00 9,0 6,3 3 2 11 6 NNE 1007,4 47 0,0
15.08.2019 22:00:00 9,1 6,4 5 3 13 7 NNW 1007,3 48 0,0
15.08.2019 21:00:00 8,9 6,7 7 4 20 11 NW 1007,1 7 0,0
15.08.2019 20:00:00 9,5 6,4 10 5 26 14 NW 1006,9 24 0,0
15.08.2019 19:00:00 9,5 7,1 12 6 25 14 WNW 1006,8 50 0,0
15.08.2019 18:00:00 9,4 8,0 10 5 21 11 WNW 1006,7 5 0,0
15.08.2019 17:00:00 9,5 8,3 11 6 23 13 WNW 1006,3 6 0,0
15.08.2019 16:00:00 9,6 8,2 10 6 25 14 W 1006,1 4,7 0,0
15.08.2019 15:00:00 9,9 8,5 13 7 25 14 W 1005,8 8 0,0
15.08.2019 14:00:00 9,7 8,5 15 8 25 13 W 1005,5 - 0,0
15.08.2019 13:00:00 9,9 8,7 15 8 25 13 W 1005,2 4,8 0,0
15.08.2019 12:00:00 10,5 8,8 9 5 27 15 W 1004,9 13 0,0
15.08.2019 11:00:00 10,2 8,6 10 6 24 13 W 1004,8 11 0,0
15.08.2019 10:00:00 10,2 8,3 10 5 20 11 W 1004,5 25 0,0
15.08.2019 09:00:00 9,8 9,2 5 3 11 6 W 1004,6 30 0,0
15.08.2019 08:00:00 9,9 8,3 7 4 16 8 WNW 1004,5 20 0,1
15.08.2019 07:00:00 9,6 9,3 5 3 14 8 W 1004,4 20 0,0

tt = Température de l'air
td = dewpoint
ff = Vitesse du vent
fx = gusts
dd = Direction du vent
ppp = reduced air pressure
vv = visibility
rr = Quantités de précipitations

stations d'obs. à proximité